Regional Weather Roundup
Issued by NWS Cleveland, OH

Home | Current Version | Previous Version | Graphics & Text | Print | Product List | Glossary On
Versions: 1 2 3 4 5 6 7 8 9 10 11 12 13 14 15 16 17 18 19 20 21 22 23 24 25 26 27 28 29 30 31 32 33 34 35 36 37 38 39 40 41 42 43 44 45 46 47 48 49 50
000
ASUS41 KCLE 010510
RWRCLE
OHIO REGIONAL WEATHER ROUNDUP
NATIONAL WEATHER SERVICE CLEVELAND, OH
1200 AM EST SUN MAR 01 2015

NOTE: "FAIR" INDICATES FEW OR NO CLOUDS BELOW 12,000 FEET WITH NO
SIGNIFICANT WEATHER AND/OR OBSTRUCTIONS TO VISIBILITY.

OHZ001>008-015>018-024>027-034-035-043-044-010600-
   NORTHWEST OHIO

CITY           SKY/WX    TMP DP  RH WIND       PRES   REMARKS
DEFIANCE       LGT SNOW  17  13  84 E3        30.52F VSB 1
FINDLAY        LGT SNOW  18  14  84 E5        30.51F FOG     WCI  11
TOLEDO EXPRESS LGT SNOW  14  11  87 E3        30.54F FOG
TOLEDO EXEC    LGT SNOW  15  11  83 E3        30.55F FOG
LIMA           LGT SNOW  19  14  81 SE7       30.48F VSB 1   WCI  10
$$

OHZ009>014-019>023-028>033-038-089-010600-
   NORTHEAST OHIO

CITY           SKY/WX    TMP DP  RH WIND       PRES   REMARKS
CLE-HOPKINS    LGT SNOW  19   8  62 MISG      30.57F
CLE-LAKEFRONT  CLOUDY    20   8  60 CALM      30.54F
CUY CO. ARPT   NOT AVBL
LORAIN-ELYRIA  LGT SNOW  15   9  76 CALM      30.54F
ASHTABULA      CLOUDY    12   1  61 CALM      30.53F
AKRON-CANTON   LGT SNOW  21   3  45 SE3       30.51F
WOOSTER        LGT SNOW  18  10  71 SE3       30.52F
MANSFIELD      LGT SNOW  18  14  84 SE9       30.49F FOG     WCI   7
YOUNGSTOWN     FLURRIES  20   1  43 SE7       30.50F WCI  11
$$

OHZ042-051>053-060>062-070>072-077>081-010600-
  SOUTHWEST OHIO

CITY           SKY/WX    TMP DP  RH WIND       PRES   REMARKS
CINC-COVINGTON LGT SNOW  25  18  74 E5        30.49F WCI  19
CINC-LUNKEN    CLOUDY    26  15  63 E3        30.54F
HAMILTON       FLURRIES  24  16  71 NE3       30.53F
DAYTON         LGT SNOW  21  18  88 E7        30.49F FOG     WCI  12
WRIGHT-PAT AFB LGT SNOW  21  18  86 NE5       30.50F FOG     WCI  15
DAYTON GENERAL LGT SNOW  22  17  81 E6        30.48F VSB 3/4 WCI  14
WILMINGTON     CLOUDY    23  12  62 N7        30.49S WCI  15
$$

OHZ036-037-039>041-045>050-054>059-063>069-073>076-082>088-010600-
  CENTRAL AND SOUTHEAST OHIO

CITY           SKY/WX    TMP DP  RH WIND       PRES   REMARKS
COLUMBUS       LGT SNOW  21  18  86 CALM      30.52F VSB 1
OSU AIRPORT    LGT SNOW  22  18  85 CALM      30.52S VSB 1
BOLTON FIELD   LGT SNOW N/A N/A N/A N5        30.52S
RICKENBACK AFB CLOUDY    25  11  54 N8        30.51S WCI  16
NEWARK         LGT SNOW  24  12  60 N5        30.51F WCI  18
MARION         LGT SNOW  19  14  81 S3        30.52F VSB 1
LANCASTER      CLOUDY    25  14  63 N6        30.50F WCI  18
ZANESVILLE     CLOUDY    24   6  46 CALM      30.51F
NEW PHILLY     CLOUDY    24  10  55 CALM      30.54S
$$



USA.gov is the U.S. government's official web portal to all federal, state and local government web resources and services.